FDX5GI EDDH-EDDF

Flight info

Callsign FDX5GI
Flight time 0h 48m
Altitude 30000
Route AMLUH2G/33 AMLUH M852 DENIX DCT RIMET/N0467F290 T157 KOKEB/N0449F230 T157 KERAX KERAX5A
Aircraft A306/H-SDE3FGHIRWY/LB1

Departure

Time 2026-05-06 16:04
Airport Hamburg Helmut Schmidt Airport (EDDH)

Arrival

Time 2026-05-06 16:53
Airport Frankfurt Main Airport (EDDF)
Time Latitude Longitude Altitude Speed Heading
2026-05-06 15:23 53.62409 10.00531 48 ft 0 kts 242°
2026-05-06 15:53 53.62409 10.00532 48 ft 2 kts 242°
2026-05-06 15:53 53.62416 10.00560 48 ft 3 kts 268°
2026-05-06 15:54 53.62413 10.00590 47 ft 3 kts 296°
2026-05-06 15:54 53.62412 10.00597 46 ft 0 kts 304°
2026-05-06 15:55 53.62432 10.00557 47 ft 12 kts 320°
2026-05-06 15:55 53.62532 10.00465 48 ft 19 kts 328°
2026-05-06 15:55 53.62584 10.00267 48 ft 16 kts 259°
2026-05-06 15:55 53.62594 10.00245 47 ft 2 kts 351°
2026-05-06 15:56 53.62659 10.00235 49 ft 13 kts 334°
2026-05-06 15:56 53.62714 10.00187 50 ft 8 kts 330°
2026-05-06 15:56 53.62756 10.00150 50 ft 8 kts 332°
2026-05-06 15:56 53.62783 10.00125 48 ft 8 kts 332°
2026-05-06 15:57 53.62793 10.00116 50 ft 0 kts 331°
2026-05-06 15:57 53.62815 10.00096 51 ft 10 kts 332°
2026-05-06 15:57 53.62828 10.00080 50 ft 0 kts 316°
2026-05-06 15:58 53.62829 10.00080 50 ft 0 kts 316°
2026-05-06 15:59 53.62844 10.00044 51 ft 5 kts 296°
2026-05-06 15:59 53.62847 10.00008 51 ft 2 kts 270°
2026-05-06 15:59 53.62844 9.99978 51 ft 0 kts 254°
2026-05-06 16:00 53.62842 9.99961 51 ft 3 kts 256°
2026-05-06 16:00 53.62840 9.99954 52 ft 0 kts 254°
2026-05-06 16:02 53.62839 9.99945 52 ft 0 kts 252°
2026-05-06 16:02 53.62837 9.99939 46 ft 5 kts 252°
2026-05-06 16:03 53.62829 9.99790 48 ft 15 kts 306°
2026-05-06 16:03 53.62871 9.99737 53 ft 0 kts 328°
2026-05-06 16:03 53.62878 9.99731 53 ft 8 kts 331°
2026-05-06 16:04 53.63141 9.99508 51 ft 78 kts 334°
2026-05-06 16:04 53.63809 9.98933 48 ft 137 kts 336°
2026-05-06 16:04 53.64813 9.98058 166 ft 182 kts 335°
2026-05-06 16:04 53.65959 9.97054 945 ft 185 kts 338°
2026-05-06 16:05 53.67096 9.96077 1908 ft 184 kts 338°
2026-05-06 16:05 53.68277 9.95076 2712 ft 199 kts 340°
2026-05-06 16:05 53.69624 9.94300 3414 ft 210 kts 357°
2026-05-06 16:05 53.71084 9.94526 4187 ft 213 kts 19°
2026-05-06 16:06 53.72410 9.95553 5164 ft 208 kts 36°
2026-05-06 16:06 53.73378 9.97369 5968 ft 214 kts 62°
2026-05-06 16:06 53.73870 9.99790 6692 ft 219 kts 75°
2026-05-06 16:06 53.74157 10.02314 7541 ft 220 kts 84°
2026-05-06 16:07 53.73913 10.04875 8264 ft 229 kts 112°
2026-05-06 16:07 53.73095 10.07196 9019 ft 235 kts 121°
2026-05-06 16:07 53.72196 10.09620 9206 ft 246 kts 120°
2026-05-06 16:07 53.71314 10.12161 9720 ft 248 kts 118°
2026-05-06 16:08 53.70475 10.14649 10419 ft 243 kts 118°
2026-05-06 16:08 53.69642 10.17164 10971 ft 249 kts 121°
2026-05-06 16:08 53.68539 10.19470 11453 ft 258 kts 138°
2026-05-06 16:08 53.67041 10.21079 12238 ft 251 kts 158°
2026-05-06 16:09 53.65340 10.21910 12679 ft 266 kts 168°
2026-05-06 16:09 53.63483 10.22684 12868 ft 283 kts 163°
2026-05-06 16:09 53.61671 10.23554 14059 ft 260 kts 166°
2026-05-06 16:09 53.59902 10.24324 14582 ft 268 kts 166°
2026-05-06 16:10 53.58043 10.25168 14739 ft 285 kts 165°
2026-05-06 16:10 53.56097 10.26072 15102 ft 292 kts 167°
2026-05-06 16:10 53.54137 10.26932 15720 ft 290 kts 166°
2026-05-06 16:10 53.52200 10.27858 16334 ft 289 kts 166°
2026-05-06 16:11 53.50264 10.28747 16869 ft 290 kts 168°
2026-05-06 16:11 53.48279 10.29590 17186 ft 299 kts 168°
2026-05-06 16:11 53.46228 10.30420 17476 ft 307 kts 169°
2026-05-06 16:11 53.44172 10.31397 18043 ft 306 kts 166°
2026-05-06 16:12 53.42113 10.32476 18513 ft 308 kts 166°
2026-05-06 16:12 53.40060 10.33502 18759 ft 315 kts 166°
2026-05-06 16:12 53.37933 10.34508 19097 ft 320 kts 167°
2026-05-06 16:12 53.35773 10.35493 19488 ft 323 kts 167°
2026-05-06 16:13 53.33595 10.36469 19897 ft 325 kts 167°
2026-05-06 16:13 53.31402 10.37445 20284 ft 328 kts 167°
2026-05-06 16:13 53.29189 10.38429 20675 ft 330 kts 167°
2026-05-06 16:13 53.26965 10.39418 21049 ft 332 kts 167°
2026-05-06 16:14 53.24728 10.40414 21442 ft 334 kts 167°
2026-05-06 16:14 53.22476 10.41419 21823 ft 336 kts 167°
2026-05-06 16:14 53.20210 10.42430 22207 ft 338 kts 167°
2026-05-06 16:14 53.17933 10.43446 22613 ft 340 kts 166°
2026-05-06 16:15 53.15634 10.44427 23033 ft 342 kts 169°
2026-05-06 16:15 53.13287 10.45091 23421 ft 343 kts 175°
2026-05-06 16:15 53.10903 10.45299 23726 ft 344 kts 181°
2026-05-06 16:15 53.08513 10.45166 24047 ft 345 kts 184°
2026-05-06 16:16 53.06111 10.44896 24371 ft 346 kts 185°
2026-05-06 16:16 53.03710 10.44557 24682 ft 348 kts 186°
2026-05-06 16:16 53.01298 10.44192 25005 ft 349 kts 186°
2026-05-06 16:16 52.98873 10.43824 25327 ft 350 kts 186°
2026-05-06 16:17 52.96453 10.43465 25757 ft 348 kts 186°
2026-05-06 16:17 52.94043 10.43119 26232 ft 346 kts 186°
2026-05-06 16:17 52.91649 10.42784 26673 ft 344 kts 186°
2026-05-06 16:17 52.89265 10.42457 27095 ft 343 kts 186°
2026-05-06 16:18 52.86885 10.42133 27510 ft 342 kts 186°
2026-05-06 16:18 52.84518 10.41812 27917 ft 341 kts 186°
2026-05-06 16:18 52.82189 10.41496 28373 ft 338 kts 186°
2026-05-06 16:18 52.79825 10.41177 28880 ft 334 kts 186°
2026-05-06 16:19 52.77544 10.40869 29328 ft 332 kts 187°
2026-05-06 16:19 52.75244 10.40557 29697 ft 331 kts 187°
2026-05-06 16:19 52.72898 10.40239 29828 ft 337 kts 187°
2026-05-06 16:19 52.70527 10.39914 29833 ft 347 kts 187°
2026-05-06 16:20 52.65573 10.39237 29825 ft 368 kts 187°
2026-05-06 16:20 52.60366 10.38533 29827 ft 387 kts 187°
2026-05-06 16:21 52.54893 10.37799 29822 ft 401 kts 187°
2026-05-06 16:21 52.49243 10.37044 29810 ft 413 kts 187°
2026-05-06 16:22 52.43439 10.36270 29799 ft 424 kts 187°
2026-05-06 16:22 52.37509 10.35482 29802 ft 431 kts 187°
2026-05-06 16:23 52.31478 10.34682 29794 ft 438 kts 187°
2026-05-06 16:23 52.25376 10.33874 29806 ft 441 kts 187°
2026-05-06 16:24 52.19265 10.33068 29796 ft 440 kts 187°
2026-05-06 16:24 52.13161 10.32264 29796 ft 439 kts 187°
2026-05-06 16:25 52.07070 10.31464 29787 ft 438 kts 187°
2026-05-06 16:25 52.00996 10.30668 29791 ft 437 kts 187°
2026-05-06 16:26 51.94977 10.29880 29781 ft 436 kts 187°
2026-05-06 16:26 51.88932 10.29091 29786 ft 435 kts 187°
2026-05-06 16:27 51.82898 10.28310 29777 ft 435 kts 187°
2026-05-06 16:27 51.76867 10.27527 29788 ft 435 kts 187°
2026-05-06 16:28 51.70842 10.26744 29771 ft 434 kts 187°
2026-05-06 16:28 51.64827 10.25970 29779 ft 434 kts 187°
2026-05-06 16:29 51.58819 10.25197 29770 ft 434 kts 187°
2026-05-06 16:29 51.52799 10.24424 29772 ft 434 kts 187°
2026-05-06 16:30 51.47800 10.23785 29773 ft 434 kts 186°
2026-05-06 16:30 51.40766 10.22885 29772 ft 434 kts 186°
2026-05-06 16:31 51.34750 10.22118 29764 ft 434 kts 186°
2026-05-06 16:31 51.28703 10.21698 29768 ft 436 kts 182°
2026-05-06 16:32 51.22629 10.21630 29763 ft 437 kts 182°
2026-05-06 16:32 51.16548 10.21580 29755 ft 437 kts 182°
2026-05-06 16:33 51.13557 10.21538 29186 ft 434 kts 182°
2026-05-06 16:33 51.10530 10.21490 27932 ft 438 kts 182°
2026-05-06 16:33 51.07415 10.21433 26544 ft 446 kts 182°
2026-05-06 16:34 51.01147 10.21317 24418 ft 448 kts 182°
2026-05-06 16:34 50.98092 10.21267 23949 ft 434 kts 182°
2026-05-06 16:34 50.95129 10.21216 23196 ft 430 kts 182°
2026-05-06 16:34 50.92153 10.21162 22328 ft 426 kts 182°
2026-05-06 16:35 50.89205 10.21106 21506 ft 421 kts 182°
2026-05-06 16:35 50.86308 10.20658 20644 ft 417 kts 191°
2026-05-06 16:35 50.83520 10.19440 19730 ft 415 kts 200°
2026-05-06 16:35 50.80934 10.17452 18870 ft 413 kts 213°
2026-05-06 16:36 50.78763 10.14499 18112 ft 411 kts 225°
2026-05-06 16:36 50.76843 10.11164 17642 ft 399 kts 228°
2026-05-06 16:36 50.75099 10.07812 16870 ft 395 kts 230°
2026-05-06 16:36 50.73422 10.04332 15770 ft 402 kts 232°
2026-05-06 16:37 50.71768 10.00898 15239 ft 393 kts 231°
2026-05-06 16:37 50.70074 9.97566 14610 ft 386 kts 230°
2026-05-06 16:37 50.68339 9.94319 13859 ft 386 kts 229°
2026-05-06 16:37 50.66624 9.91099 13259 ft 379 kts 229°
2026-05-06 16:38 50.64923 9.87932 12465 ft 377 kts 229°
2026-05-06 16:38 50.63268 9.84785 11986 ft 368 kts 231°
2026-05-06 16:38 50.61682 9.81601 11174 ft 371 kts 230°
2026-05-06 16:38 50.60017 9.78438 10926 ft 378 kts 229°
2026-05-06 16:39 50.58285 9.75315 10836 ft 379 kts 228°
2026-05-06 16:39 50.56547 9.72215 10782 ft 378 kts 228°
2026-05-06 16:39 50.54796 9.69138 10709 ft 377 kts 227°
2026-05-06 16:39 50.53053 9.66055 10607 ft 378 kts 228°
2026-05-06 16:40 50.51345 9.62936 10721 ft 377 kts 229°
2026-05-06 16:40 50.49645 9.59813 10941 ft 377 kts 229°
2026-05-06 16:40 50.47943 9.56691 10796 ft 372 kts 229°
2026-05-06 16:40 50.46271 9.53626 9798 ft 376 kts 229°
2026-05-06 16:41 50.44606 9.50568 9426 ft 362 kts 229°
2026-05-06 16:41 50.43003 9.47605 8894 ft 353 kts 229°
2026-05-06 16:41 50.41411 9.44686 8163 ft 351 kts 228°
2026-05-06 16:41 50.39829 9.41817 7659 ft 343 kts 228°
2026-05-06 16:42 50.38292 9.39038 7303 ft 332 kts 228°
2026-05-06 16:42 50.36805 9.36326 6756 ft 327 kts 229°
2026-05-06 16:42 50.35366 9.33665 6971 ft 320 kts 229°
2026-05-06 16:42 50.33909 9.30966 7005 ft 329 kts 229°
2026-05-06 16:43 50.32443 9.28213 6921 ft 329 kts 230°
2026-05-06 16:43 50.30988 9.25461 6816 ft 328 kts 229°
2026-05-06 16:43 50.29522 9.22729 6865 ft 328 kts 229°
2026-05-06 16:43 50.28047 9.20012 6868 ft 328 kts 229°
2026-05-06 16:44 50.26541 9.17325 6810 ft 327 kts 228°
2026-05-06 16:44 50.25036 9.14678 6356 ft 326 kts 227°
2026-05-06 16:44 50.23527 9.12032 5701 ft 325 kts 227°
2026-05-06 16:44 50.22043 9.09428 5373 ft 314 kts 228°
2026-05-06 16:45 50.20626 9.06911 5055 ft 303 kts 229°
2026-05-06 16:45 50.19301 9.04521 4975 ft 286 kts 229°
2026-05-06 16:45 50.18043 9.02238 4973 ft 271 kts 229°
2026-05-06 16:45 50.16821 9.00020 4979 ft 269 kts 229°
2026-05-06 16:46 50.15601 8.97800 4980 ft 270 kts 230°
2026-05-06 16:46 50.14618 8.95412 4956 ft 251 kts 244°
2026-05-06 16:46 50.14013 8.93030 4973 ft 229 kts 249°
2026-05-06 16:46 50.13494 8.90761 4996 ft 209 kts 249°
2026-05-06 16:47 50.13022 8.88731 4991 ft 198 kts 248°
2026-05-06 16:47 50.12546 8.86725 5017 ft 197 kts 248°
2026-05-06 16:47 50.12057 8.84718 4733 ft 198 kts 248°
2026-05-06 16:47 50.11556 8.82708 4314 ft 198 kts 249°
2026-05-06 16:48 50.11082 8.80720 4161 ft 195 kts 250°
2026-05-06 16:48 50.10645 8.78720 4108 ft 194 kts 252°
2026-05-06 16:48 50.10266 8.76707 3842 ft 193 kts 250°
2026-05-06 16:48 50.09712 8.74762 3554 ft 203 kts 242°
2026-05-06 16:49 50.08999 8.72862 3339 ft 200 kts 243°
2026-05-06 16:49 50.08595 8.70889 3286 ft 186 kts 256°
2026-05-06 16:49 50.08268 8.68906 2758 ft 194 kts 256°
2026-05-06 16:49 50.07851 8.66922 2239 ft 188 kts 246°
2026-05-06 16:50 50.07390 8.65124 1915 ft 173 kts 250°
2026-05-06 16:50 50.06984 8.63418 1697 ft 160 kts 251°
2026-05-06 16:50 50.06730 8.62400 1670 ft 143 kts 251°
2026-05-06 16:50 50.06412 8.61008 1429 ft 134 kts 252°
2026-05-06 16:51 50.06093 8.59656 1217 ft 132 kts 252°
2026-05-06 16:51 50.05779 8.58347 1080 ft 129 kts 250°
2026-05-06 16:51 50.05455 8.57013 906 ft 135 kts 252°
2026-05-06 16:51 50.05135 8.55618 724 ft 138 kts 251°
2026-05-06 16:52 50.04772 8.54233 554 ft 138 kts 253°
2026-05-06 16:52 50.04457 8.52881 381 ft 126 kts 252°
2026-05-06 16:52 50.04192 8.51745 350 ft 94 kts 252°
2026-05-06 16:52 50.04013 8.50991 331 ft 60 kts 248°
2026-05-06 16:53 50.03893 8.50522 324 ft 35 kts 241°
2026-05-06 16:53 50.03788 8.50315 322 ft 21 kts 224°
2026-05-06 16:53 50.03695 8.50198 325 ft 5 kts 213°
2026-05-06 16:53 50.03690 8.50195 324 ft 0 kts 204°
2026-05-06 16:54 50.03689 8.50195 324 ft 1 kts 201°
2026-05-06 16:54 50.03662 8.50192 326 ft 7 kts 174°
2026-05-06 16:54 50.03626 8.50272 331 ft 13 kts 78°
2026-05-06 16:55 50.03662 8.50421 333 ft 13 kts 71°
2026-05-06 16:55 50.03687 8.50528 332 ft 14 kts 69°
2026-05-06 16:55 50.03745 8.50765 334 ft 24 kts 70°
2026-05-06 16:55 50.03754 8.50975 351 ft 16 kts 114°
2026-05-06 16:56 50.03713 8.51100 358 ft 15 kts 116°
2026-05-06 16:56 50.03646 8.51309 362 ft 23 kts 117°
2026-05-06 16:56 50.03572 8.51520 365 ft 20 kts 115°
2026-05-06 16:56 50.03519 8.51724 364 ft 20 kts 106°
2026-05-06 16:57 50.03520 8.51892 361 ft 9 kts 83°
2026-05-06 16:57 50.03528 8.52015 358 ft 6 kts 83°
2026-05-06 16:57 50.03535 8.52101 359 ft 8 kts 81°
2026-05-06 16:57 50.03547 8.52239 355 ft 17 kts 82°
2026-05-06 16:58 50.03583 8.52434 355 ft 20 kts 70°
2026-05-06 16:58 50.03606 8.52656 354 ft 22 kts 77°
2026-05-06 16:58 50.03601 8.52884 354 ft 22 kts 123°
2026-05-06 16:58 50.03592 8.53036 350 ft 14 kts 65°
2026-05-06 16:59 50.03611 8.53095 354 ft 5 kts 60°
2026-05-06 16:59 50.03631 8.53161 352 ft 8 kts 69°
2026-05-06 16:59 50.03654 8.53256 350 ft 11 kts 69°
2026-05-06 16:59 50.03686 8.53390 354 ft 15 kts 69°
2026-05-06 17:00 50.03714 8.53495 352 ft 9 kts 61°
2026-05-06 17:00 50.03755 8.53523 355 ft 6 kts 358°
2026-05-06 17:00 50.03793 8.53508 357 ft 6 kts 342°
2026-05-06 17:00 50.03817 8.53496 360 ft 0 kts 340°
2026-05-06 17:01 50.03818 8.53496 360 ft 0 kts 340°